Regional Weather Roundup
Issued by NWS Cleveland, OH

Home | Current Version | Previous Version | Graphics & Text | Print | Product List | Glossary On
Versions: 1 2 3 4 5 6 7 8 9 10 11 12 13 14 15 16 17 18 19 20 21 22 23 24 25 26 27 28 29 30 31 32 33 34 35 36 37 38 39 40 41 42 43 44 45 46 47 48 49 50
000
ASUS41 KCLE 071800
RWRCLE
OHIO REGIONAL WEATHER ROUNDUP
NATIONAL WEATHER SERVICE WILMINGTON, OH
200 PM EDT TUE JUL 07 2015

NOTE: "FAIR" INDICATES FEW OR NO CLOUDS BELOW 12,000 FEET WITH NO
SIGNIFICANT WEATHER AND/OR OBSTRUCTIONS TO VISIBILITY.

OHZ001>008-015>018-024>027-034-035-043-044-071900-
   NORTHWEST OHIO

CITY           SKY/WX    TMP DP  RH WIND       PRES   REMARKS
DEFIANCE       CLOUDY    75  71  87 SW7       29.90R
FINDLAY        LGT RAIN  72  70  93 W12       29.91R FOG
TOLEDO EXPRESS LGT RAIN  74  72  93 SW7       29.88S
TOLEDO EXEC    LGT RAIN  75  70  84 SW10      29.89S
LIMA           RAIN      68  66  93 SW9       29.95S FOG
$$

OHZ009>014-019>023-028>033-038-089-071900-
   NORTHEAST OHIO

CITY           SKY/WX    TMP DP  RH WIND       PRES   REMARKS
CLE-HOPKINS    CLOUDY    83  69  62 SW15      29.91F
CLE-LAKEFRONT  PTSUNNY   83  68  60 SW17G26   29.87F
CUY CO. ARPT   NOT AVBL
LORAIN-ELYRIA  LGT RAIN  75  70  84 SW12      29.91S
ASHTABULA      MOSUNNY   84  72  67 S13G24    29.90F
AKRON-CANTON   PTSUNNY   83  69  62 SW17      29.94F
WOOSTER        NOT AVBL
MANSFIELD      CLOUDY    81  71  71 SW14      29.94F
YOUNGSTOWN     LGT RAIN  80  70  71 SW15G23   29.94F
$$

OHZ042-051>053-060>062-070>072-077>081-071900-
  SOUTHWEST OHIO

CITY           SKY/WX    TMP DP  RH WIND       PRES   REMARKS
CINC-COVINGTON CLOUDY    79  71  76 SW10G18   29.97R
CINC-LUNKEN    CLOUDY    80  71  74 SW13G24   29.96R
HAMILTON       CLOUDY    82  71  69 SW13G26   29.95R
DAYTON         NOT AVBL
WRIGHT-PAT AFB NOT AVBL
DAYTON GENERAL CLOUDY    80  70  71 SW15G22   29.94S
WILMINGTON     CLOUDY    80  70  71 S16       29.95S
$$

OHZ036-037-039>041-045>050-054>059-063>069-073>076-082>088-071900-
  CENTRAL AND SOUTHEAST OHIO

CITY           SKY/WX    TMP DP  RH WIND       PRES   REMARKS
COLUMBUS       CLOUDY    83  70  64 S16G29    29.94F
OSU AIRPORT    CLOUDY    81  71  71 SW17G23   29.94F
BOLTON FIELD   NOT AVBL
RICKENBACK AFB NOT AVBL
NEWARK         PTSUNNY   86  71  60 S15G24    29.95F HX  91
MARION         CLOUDY    79  71  76 SW17G23   29.93S HAZE
LANCASTER      PTSUNNY   83  70  64 SW12      29.97F
ZANESVILLE     PTSUNNY   82  67  60 SW13G23   29.97F
NEW PHILLY     PTSUNNY   81  71  71 S9G18     29.96F
$$


USA.gov is the U.S. government's official web portal to all federal, state and local government web resources and services.